Regional Weather Roundup
Issued by NWS

Home | Current Version | Previous Version | Text Only | Print | Product List | Glossary Off
Versions: 1 2 3 4 5 6 7 8 9 10 11 12 13 14 15 16 17 18 19 20 21 22 23 24 25 26 27 28 29 30 31 32 33 34 35 36 37 38 39 40 41 42 43 44 45 46 47 48 49 50

000
ASUS43 KOAX 300810
RWRNE

WEATHER ROUNDUP FOR NEBRASKA
NATIONAL WEATHER SERVICE OMAHA NE
200 AM CST FRI JAN 30 2015

NOTES: SATELLITE DATA IS BEING USED TO AUGMENT CLOUD COVER ABOVE
       12000 FEET.
       "FAIR" INDICATES FEW OR NO CLOUDS BELOW 12,000 FEET WITH NO
       SIGNIFICANT WEATHER AND/OR OBSTRUCTIONS TO VISIBILITY.

  * THESE STATIONS DO NOT REPORT WEATHER SUCH AS RAIN...SNOW OR FOG.

NEZ001>004-019>022-054>056-300900-
NEBRASKA PANHANDLE

CITY           SKY/WX    TMP DP  RH WIND       PRES   REMARKS
SCOTTSBLUFF    MOCLDY    28  21  75 E9        30.32F WCI  19
ALLIANCE       MOCLDY    25  19  78 SE6       30.32F WCI  18
CHADRON        PTCLDY    35  17  47 SW10      30.30F WCI  27
KIMBALL        CLOUDY    27  19  70 S9        30.29F WCI  18
SIDNEY         MOCLDY    29  19  66 S8        30.33F WCI  21
$$

NEZ057>060-069>072-079>082-300900-
SOUTHWEST NEBRASKA

CITY           SKY/WX    TMP DP  RH WIND       PRES   REMARKS
NORTH PLATTE   PTCLDY    18  13  80 CALM      30.43F
IMPERIAL       MOCLDY    29  20  69 S9        30.41F WCI  20
LEXINGTON      PTCLDY    19  15  85 CALM      30.46F
MCCOOK         PTCLDY    21  16  81 SW3       30.45F
OGALLALA       MOCLDY    27  19  72 CALM      30.40F
$$

NEZ005>010-023>029-035>040-094-300900-
NORTH CENTRAL NEBRASKA

CITY           SKY/WX    TMP DP  RH WIND       PRES   REMARKS
VALENTINE      CLEAR     21  16  81 NE3       30.40S
AINSWORTH      CLEAR     22  19  85 S8        30.40F WCI  13
BROKEN BOW     PTCLDY    16  12  84 CALM      30.45S
O`NEILL        CLEAR     20  19  96 SE3       30.48S
ORD            CLEAR     15  12  88 S5        30.48S WCI   8
THEDFORD       PTCLDY    27  18  70 S7        30.40F WCI  19
$$

NEZ041-046>049-061>064-073>077-083>087-300900-
SOUTH CENTRAL NEBRASKA

CITY           SKY/WX    TMP DP  RH WIND       PRES   REMARKS
GRAND ISLAND   PTCLDY    20  18  92 SE6       30.52S WCI  12
AURORA         PTCLDY    20  19  96 SE3       30.52S
HASTINGS       PTCLDY    25  20  81 SE8       30.50F WCI  16
HEBRON         PTCLDY    15  11  85 CALM      30.55F
HOLDREGE       PTCLDY    20  13  73 CALM      30.46F
KEARNEY *      CLEAR     21  18  86 CALM      30.48F
YORK           PTCLDY    18  18 100 CALM      30.53S FOG
$$

NEZ011>018-030>034-042>045-300900-
NORTHEAST NEBRASKA

CITY           SKY/WX    TMP DP  RH WIND       PRES   REMARKS
NORFOLK        CLEAR     19  16  88 CALM      30.51S
ALBION         CLEAR     16  13  88 CALM      30.51S
BLAIR          CLEAR     24  19  82 CALM      30.53R
COLUMBUS *     PTCLDY    18   9  68 CALM      30.55S
FREMONT        PTCLDY    21  19  93 CALM      30.55S
TEKAMAH        CLEAR     20  16  84 NW3       30.55F
WAYNE          CLEAR     14  12  91 CALM      30.53F
$$

NEZ050>053-065>068-078-088>093-300900-
SOUTHEAST NEBRASKA

CITY           SKY/WX    TMP DP  RH WIND       PRES   REMARKS
LINCOLN        PTCLDY    20  17  88 N3        30.56S
OMAHA EPPLEY   CLEAR     23  19  85 N5        30.55S WCI  17
BEATRICE       PTCLDY    16  13  89 CALM      30.55S
FALLS CITY     CLEAR     19  16  88 NW7       30.55R WCI  10
NEBRASKA CITY  CLEAR     23  18  82 N6        30.55R WCI  16
PLATTSMOUTH    PTCLDY    22  18  86 CALM      30.54R
$$

NEZ044-045-051>053-067-300900-
OMAHA AREA

CITY           SKY/WX    TMP DP  RH WIND       PRES   REMARKS
OMAHA EPPLEY   CLEAR     23  19  85 N5        30.55S WCI  17
BLAIR          CLEAR     24  19  82 CALM      30.53R
FREMONT        PTCLDY    21  19  93 CALM      30.55S
MILLARD        PTCLDY    24  20  85 CALM      30.55S
OFFUTT AFB     CLEAR     22  17  83 NW5       30.55R WCI  15
PLATTSMOUTH    PTCLDY    22  18  86 CALM      30.54R
WAHOO          FAIR      21  18  87 NW5       30.55S WCI  15
$$


USA.gov is the U.S. government's official web portal to all federal, state and local government web resources and services.